Location: Burbank Junction
(34.1853°N, 118.3181°W)
Time: 20:19:07
(UTC+00:00)

Daily predictions for brighter satellites

Satellite Brightness Start Highest point End
(mag) Time Altitude Azimuth Time Altitude Azimuth Time Altitude Azimuth
Hubble Space Telescope 3.6 12:03:12 11° SE 12:03:12 11° SE 12:03:41 10° SE
SJ 16-02 1.7 12:22:31 59° SE 12:22:31 59° SE 12:26:07 10° SSE
SL-16 R/B 2.8 12:24:24 40° NNW 12:24:24 40° NNW 12:28:15 10° NNE
Cosmos 1110 Rocket 4.2 12:20:12 10° S 12:25:25 70° ESE 12:30:42 10° NNE
Cosmos 1869 4.2 12:31:44 36° SSE 12:31:44 36° SSE 12:33:58 10° SSE
Aureole 3 4.0 12:28:01 10° SSW 12:33:57 67° W 12:38:55 10° N
Cosmos 304 Rocket 3.6 12:39:00 53° NNW 12:40:07 80° WSW 12:44:51 10° SSE
OAO 1 4.4 12:39:25 56° WNW 12:40:36 81° N 12:46:05 10° E
Cosmos 371 Rocket 3.1 12:39:48 46° NNW 12:41:16 81° WSW 12:46:04 10° SSE
Cosmos 2346 Rocket 4.4 12:37:13 10° SSW 12:43:14 59° W 12:49:14 10° N
Cosmos 2233 Rocket 4.1 12:42:19 18° NNW 12:46:47 51° W 12:52:44 10° SSW
Cosmos 1447 Rocket 4.5 12:41:39 10° SSW 12:47:45 57° W 12:53:58 10° N
Cosmos 1400 Rocket 3.9 12:47:55 10° N 12:51:23 40° E 12:54:47 10° SSE
Cosmos 2061 Rocket 4.1 12:47:17 10° NNW 12:53:13 50° W 12:59:11 10° SSW
SL-16 R/B 4.3 12:49:37 10° SW 12:50:50 14° SW 12:50:50 14° SW
Cosmos 1674 Rocket 3.6 12:51:44 10° S 12:56:09 81° E 13:00:34 10° N
Cosmos 1818 3.7 12:52:18 10° SSW 12:57:41 77° ESE 13:03:08 10° NNE
H-2A R/B 2.7 13:00:05 25° SSW 13:00:48 28° S 13:05:24 10° ESE
Cosmos 1452 Rocket 3.4 12:57:44 10° SSW 13:02:56 71° WNW 13:08:09 10° NNE
Cosmos 1331 Rocket 4.2 13:04:22 10° SW 13:09:24 46° WNW 13:14:26 10° N
Cosmos 1943 3.1 13:04:06 10° SSW 13:09:39 66° WNW 13:15:14 10° NNE
Atlas Centaur 2 4.3 13:04:25 10° SW 13:11:04 31° SSE 13:16:53 10° E
Chandra Rocket (1) 4.0 13:09:51 19° WSW 13:13:20 44° S 13:28:06 10° ESE
Cosmos 1850 Rocket 4.4 13:08:33 10° N 13:13:40 64° ENE 13:18:48 10° SSE
Cosmos 2369 Rocket 2.2 13:09:12 10° NNW 13:14:55 89° WSW 13:20:37 10° SSE
NOAA 12 4.0 13:10:12 10° N 13:15:30 68° WNW 13:20:44 10° SSW
CZ-4 R/B 3.8 13:10:51 10° N 13:15:31 58° WNW 13:20:06 10° SSW
Cosmos 2297 3.7 13:10:20 10° NNW 13:15:59 90° W 13:21:36 10° SSE
Meteor 1-11 4.2 13:10:42 10° SSW 13:16:31 75° W 13:22:22 10° N
Cosmos 1603 4.2 13:11:11 10° S 13:16:51 66° ESE 13:22:32 10° NNE
SWARM A 4.2 13:14:09 10° SSW 13:17:23 56° W 13:20:39 10° N
Cosmos 1378 Rocket 4.1 13:17:42 10° SW 13:21:31 32° W 13:25:22 10° NNW
Cosmos 2221 Rocket 3.5 13:21:28 10° SSW 13:25:58 73° W 13:30:29 10° N
Cosmos 2151 Rocket 3.6 13:30:27 10° NNW 13:34:50 57° W 13:39:09 10° S
Cosmos 1072 Rocket 4.5 13:31:09 10° NNW 13:37:15 67° W 13:43:24 10° S
Lacrosse 5 rocket 2.9 13:34:57 10° N 13:37:37 22° NE 13:40:14 10° E
Lacrosse 4 Rocket 3.5 13:37:04 10° N 13:40:14 23° ENE 13:43:21 10° ESE
CBERS-1 4.4 13:35:22 10° NNE 13:40:28 71° ESE 13:45:32 10° S
Hubble Space Telescope 2.4 13:38:38 10° SW 13:41:51 26° S 13:45:05 10° ESE
Okean 1 Rocket 2.9 13:37:41 10° N 13:41:59 79° W 13:46:16 10° S
Helios 1A Rocket 2.7 13:39:55 10° S 13:43:09 46° W 13:46:23 10° NNW
USA 267 4.3 13:40:01 10° NNE 13:45:04 25° NNW 13:50:08 10° W
Sich 1 Rocket 3.6 13:42:33 10° NNW 13:47:01 68° W 13:51:25 10° S
COSMO-SKYMED 1 2.6 13:44:57 10° S 13:48:57 53° W 13:52:59 10° NNW
Cosmos 1484 Rocket 2.5 13:45:41 10° N 13:49:07 55° WNW 13:52:31 10° SSW
Cosmos 968 Rocket 3.9 13:44:48 10° NNW 13:49:42 41° WSW 13:54:34 10° S
SMAP 4.2 13:46:47 10° NNE 13:51:18 48° E 13:55:47 10° S
ATLAS 3B R/B 4.2 13:51:02 10° W 13:56:12 19° NW 14:01:32 10° N
BREEZE-M DEB (TANK) 3.8 13:56:05 10° NW 13:58:08 18° N 14:01:11 10° NE
SL-8 R/B 3.9 13:54:05 10° WSW 13:58:43 50° NNW 14:03:20 10° NE
CENTAUR R/B 3.5 13:50:03 10° NW 13:58:49 64° WSW 14:08:09 10° SSE
Cosmos 292 Rocket 4.0 13:55:10 10° NNW 13:59:57 76° ENE 14:04:41 10° SSE
NOSS 2-2 (C) 4.1 13:58:17 10° NNW 14:02:50 86° WSW 14:09:20 10° SSE
IGS 5A 3.3 13:59:05 10° N 14:03:00 61° WNW 14:06:53 10° SSW
